Content
SEND FEEDBACK

Daily
Averages
Monthly
Summary
United Kingdom

YORK, ENGLAND


Home > Europe > United Kingdom > England
Elevation: 27 feet     Latitude: 53 50N     Longitude: 001 11W

WEATHER
 
SELECT A DAY
Number of Records: 48,838;   Date Range: 6/27/01 - 12/19/13
 
SHARE

PRINT THIS DATA

[ ← Previous Day ]
WEATHER ALMANAC - JANUARY 16, 2013
[ Next Day → ]
[ °C ]   °F
Weather ElementAverageHighLow
Temperature25 °F27 °F (2:50 pm)22 °F (2:50 am)
Dewpoint24.4 °F27 °F (2:50 pm)21 °F (2:50 am)
Humidity97.3 %100 % (1:50 am)93 % (2:50 am)
Barometer29.95 in30.05 in (11:50 pm)29.86 in (1:50 am)
Wind Speed1.6 mph3.5 mph (8:50 am)
Weather ElementAverage
Visibility0.2 mi
Wind DirectionSSW (196.8 °)

Weather ElementTotal
Precipitation---
Heating Degree Days40.5 (Base 65)
Averaged from 30 records on January 16, 2013
WEATHER CONDITIONS BREAKOUT
WIND DIRECTION BREAKOUT
WEATHER BY HOUR - JANUARY 16, 2013
[ °C ]   °F
Local TimeTemperatureDewpointHumidityBarometerVisibilityWind DirectionWind SpeedGust SpeedPrecipitationEventsConditions
1:50 AM23.0 °F23.0 °F100 %29.86 in0.1 miNE (40°)2.3 mphFogFog
2:50 AM22.0 °F21.0 °F96 %29.89 in0.0 miNorth2.3 mphFogFog
2:50 AM23.0 °F21.2 °F93 %29.89 in0.1 miNorth (360°)2.3 mphFogFog
3:50 AM23.0 °F21.2 °F93 %29.89 in0.2 miNNW (330°)2.3 mphFogFog
4:50 AM23.0 °F21.2 °F93 %29.89 in0.1 miNNW (340°)2.3 mphFogFog
5:50 AM23.0 °F22.0 °F96 %29.89 in0.0 miNorth (350°)2.3 mphFogFog
5:50 AM23.0 °F23.0 °F100 %29.86 in0.3 miNorth (350°)2.3 mphFogFog
6:50 AM23.0 °F21.2 °F93 %29.89 in0.1 miCalmFogFog
7:50 AM23.0 °F21.2 °F93 %29.89 in0.3 miWest (270°)1.2 mphFogFog
8:50 AM25.0 °F24.0 °F97 %29.93 in1.0 miWNW (290°)3.5 mphFogFog
8:50 AM24.8 °F24.8 °F100 %29.92 in0.9 miWNW (290°)3.5 mphOvercast
9:50 AM24.8 °F24.8 °F100 %29.92 inNorth (350°)2.3 mphOvercast
10:50 AM26.6 °F24.8 °F93 %29.92 in0.2 miNNW (340°)2.3 mphFogFog
11:50 AM26.0 °F26.0 °F98 %29.95 in0.0 miNNW (330°)1.2 mphFogFog
11:50 AM26.6 °F26.6 °F100 %29.95 in0.2 miNNW (330°)1.2 mphFogFog
12:50 PM26.6 °F26.6 °F100 %29.95 in0.1 miSE (130°)1.2 mphFogFog
1:50 PM26.6 °F26.6 °F100 %29.95 in0.1 miWNW (290°)1.2 mphFogFog
2:50 PM27.0 °F27.0 °F100 %29.97 in0.0 miCalmFogFog
2:50 PM26.6 °F26.6 °F100 %29.95 in0.1 miCalmFogFog
3:50 PM26.6 °F26.6 °F100 %29.95 in0.1 miCalmFogFog
4:50 PM26.6 °F26.6 °F100 %29.98 in0.1 miSSE (160°)1.2 mphFogFog
5:50 PM26.0 °F25.0 °F96 %30.01 in0.0 miCalmFogFog
5:50 PM26.6 °F24.8 °F93 %30.01 in0.1 miCalmFogFog
6:50 PM26.6 °F26.6 °F100 %29.98 in0.1 miSE (130°)2.3 mphFogFog
8:50 PM26.0 °F25.0 °F95 %30.02 in0.0 miSE (140°)2.3 mphFogFog
8:50 PM26.6 °F24.8 °F93 %30.01 inSE (140°)2.3 mphFogFog
9:50 PM24.8 °F24.8 °F100 %30.01 in0.2 miSSE (150°)1.2 mphFogFog
10:50 PM24.8 °F24.8 °F100 %30.01 in0.1 miSouth (180°)1.2 mphFogFog
11:50 PM25.0 °F24.0 °F96 %30.05 in0.0 miESE (110°)2.3 mphFogFog
11:50 PM24.8 °F24.8 °F100 %30.04 in0.1 miESE (110°)2.3 mphFogFog
Hourly data recorded from EGXG, located miles away from York, England







STORIES FROM OUR PARTNERS